GW1601 Weather Reports


time (UTC)temp
F
wind
direction
speed
knots
gust
knots
rain 1hr
in
rain 24hr
in
rain mn
in
humidity
%
barometer
mb
20260510164545 67 332 0.0 4.3 0.00 0.00 0.01 68 991.1
20260510163944 66 40 1.7 3.5 0.00 0.00 0.01 71 991.1
20260510162725 65 214 0.0 5.2 0.00 0.00 0.01 72 991.1
20260510161529 63 44 1.7 3.5 0.00 0.00 0.01 75 991.1
20260510160950 62 339 0.0 5.2 0.00 0.00 0.01 77 991.1
20260510155736 62 33 0.9 2.6 0.00 0.00 0.01 82 991.1
20260510155150 61 25 0.0 4.3 0.00 0.00 0.01 82 990.8
20260510154523 61 219 2.6 4.3 0.00 0.00 0.01 85 990.8
20260510153949 61 268 0.0 2.6 0.00 0.00 0.01 85 990.8
20260510153322 60 318 1.7 6.1 0.00 0.00 0.01 85 990.5
20260510152733 60 230 0.9 4.3 0.00 0.00 0.01 86 990.5
20260510152149 60 225 1.7 3.5 0.00 0.00 0.01 88 990.1
20260510151535 60 256 0.9 3.5 0.00 0.00 0.01 87 990.1
20260510150914 60 195 0.0 7.8 0.00 0.00 0.01 88 990.1
20260510150339 60 216 1.7 4.3 0.00 0.00 0.01 92 990.1
20260510145717 59 6 1.7 4.3 0.00 0.00 0.01 91 989.8
20260510145138 59 151 2.6 5.2 0.00 0.00 0.01 91 989.8
20260510144510 58 28 0.9 3.5 0.00 0.00 0.01 91 989.5
20260510143926 59 39 0.0 3.5 0.00 0.00 0.01 92 989.5
20260510143335 58 37 1.7 2.6 0.00 0.00 0.01 92 989.5
20260510142713 58 143 2.6 2.6 0.00 0.00 0.01 94 989.5
20260510142128 58 3 1.7 2.6 0.00 0.00 0.01 94 989.8
20260510140929 58 55 0.0 3.5 0.00 0.00 0.01 95 989.5
20260510135715 58 75 0.0 1.7 0.00 0.00 0.01 96 989.8
20260510135116 57 186 0.0 2.6 0.00 0.00 0.01 94 990.1
20260510134511 57 163 0.9 1.7 0.00 0.00 0.01 94 989.8
20260510133348 58 6 0.0 1.7 0.00 0.00 0.00 91 989.5
20260510132749 58 215 3.5 5.2 0.00 0.00 0.00 89 989.5
20260510131517 58 235 0.0 1.7 0.00 0.00 0.00 92 989.1
20260510130920 57 153 0.9 2.6 0.00 0.00 0.00 96 988.8
20260510130331 57 16 0.9 4.3 0.00 0.00 0.00 99 989.1
20260510125751 57 126 0.9 1.7 0.00 0.00 0.00 99 988.8
20260510125144 56 203 0.9 1.7 0.00 0.00 0.00 99 989.1
20260510123308 54 58 0.9 2.6 0.00 0.00 0.00 99 988.8
20260510122730 54 198 0.0 1.7 0.00 0.00 0.00 99 988.4
20260510122134 53 178 1.7 2.6 0.00 0.00 0.00 99 988.4
20260510121511 53 28 0.0 1.7 0.00 0.00 0.00 99 988.4
20260510120949 53 130 0.9 1.7 0.00 0.00 0.00 99 988.4
20260510115743 52 132 0.9 1.7 0.00 0.00 0.00 99 988.4
20260510114518 52 23 0.0 1.7 0.00 0.00 0.00 99 988.4
20260510113914 52 154 1.7 1.7 0.00 0.00 0.00 99 988.1
20260510112710 51 164 0.0 1.7 0.00 0.00 0.00 99 987.8
20260510112131 51 146 0.0 1.7 0.00 0.00 0.00 99 987.8
20260510111532 50 143 0.0 1.7 0.00 0.00 0.00 99 987.8
20260510110933 50 60 0.9 1.7 0.00 0.00 0.00 99 987.8
20260510110312 50 108 0.0 1.7 0.00 0.00 0.00 99 987.4
20260510105747 50 167 0.9 1.7 0.00 0.00 0.00 99 987.4
20260510105143 50 162 0.9 1.7 0.00 0.00 0.00 99 987.1
20260510103935 50 353 0.0 1.7 0.00 0.00 0.00 99 986.7
20260510103324 50 164 0.0 1.7 0.00 0.00 0.00 99 986.4
20260510102717 50 151 0.9 1.7 0.00 0.00 0.00 99 986.7
20260510102142 50 168 0.9 1.7 0.00 0.00 0.00 99 986.4
20260510101511 50 192 0.9 1.7 0.00 0.00 0.00 99 986.4
20260510100351 49 168 0.0 1.7 0.00 0.00 0.00 99 986.4
20260510095710 49 161 0.9 1.7 0.00 0.00 0.00 99 986.4
20260510095139 49 141 0.0 1.7 0.00 0.00 0.00 99 986.1
20260510094539 49 157 0.0 1.7 0.00 0.00 0.00 99 986.1
20260510093908 49 147 0.0 1.7 0.00 0.00 0.00 99 985.7
20260510093327 50 205 0.0 1.7 0.00 0.00 0.00 99 985.7
20260510092725 50 89 0.0 1.7 0.00 0.00 0.00 99 985.7
20260510092129 50 161 0.9 1.7 0.00 0.00 0.00 99 985.4
20260510091537 50 178 1.7 2.6 0.00 0.00 0.00 99 985.4
20260510090909 50 133 0.0 1.7 0.00 0.00 0.00 99 985.7
20260510090341 50 172 0.9 2.6 0.00 0.00 0.00 99 985.4
20260510085716 50 173 0.0 2.6 0.00 0.00 0.00 99 985.4
20260510083948 51 164 0.9 2.6 0.00 0.00 0.00 99 985.1
20260510083352 51 140 0.9 1.7 0.00 0.00 0.00 99 985.1
20260510082744 51 117 0.0 1.7 0.00 0.00 0.00 99 985.1
20260510082119 51 223 0.9 1.7 0.00 0.00 0.00 99 985.1
20260510081549 51 203 0.9 2.6 0.00 0.00 0.00 99 984.7
20260510080918 51 158 0.9 2.6 0.00 0.00 0.00 99 985.1
20260510080327 51 74 0.0 0.9 0.00 0.00 0.00 99 985.1
20260510075750 51 169 1.7 2.6 0.00 0.00 0.00 99 985.1
20260510074542 51 55 0.0 1.7 0.00 0.00 0.00 99 985.1
20260510073942 51 141 0.0 1.7 0.00 0.00 0.00 99 985.1
20260510073347 51 141 0.9 2.6 0.00 0.00 0.00 99 985.1
20260510072734 51 135 0.0 1.7 0.00 0.00 0.00 99 985.1
20260510072126 51 140 0.0 1.7 0.00 0.00 0.00 99 984.7
20260510071546 51 156 0.0 1.7 0.00 0.00 0.00 99 985.1
20260510070925 51 146 0.0 2.6 0.00 0.00 0.00 99 985.1
20260510070312 51 150 1.7 3.5 0.00 0.00 0.00 99 985.1
20260510065734 51 4 0.9 2.6 0.00 0.00 0.00 99 985.4
20260510065141 51 185 1.7 2.6 0.00 0.00 0.00 99 985.1
20260510063923 51 141 0.0 1.7 0.00 0.00 0.00 99 985.1
20260510063330 51 161 0.0 2.6 0.00 0.00 0.00 99 985.1
20260510062709 51 310 0.0 1.7 0.00 0.00 0.00 99 985.1
20260510062146 51 299 0.0 1.7 0.00 0.00 0.00 99 985.1
20260510061534 51 178 0.0 2.6 0.00 0.00 0.00 99 985.1
20260510060949 51 109 0.9 1.7 0.00 0.00 0.00 99 985.1
20260510060341 52 215 0.0 1.7 0.00 0.00 0.00 99 985.1
20260510055725 52 127 0.0 3.5 0.00 0.00 0.00 99 985.1
20260510055118 52 197 0.9 2.6 0.00 0.00 0.00 99 985.4
20260510054538 52 133 0.0 1.7 0.00 0.00 0.00 99 985.1
20260510053314 52 207 0.9 1.7 0.00 0.00 0.00 99 985.1
20260510052149 53 171 0.0 1.7 0.00 0.00 0.00 98 985.1
20260510051548 53 249 0.0 1.7 0.00 0.00 0.00 98 985.1
20260510050912 53 186 0.0 1.7 0.00 0.00 0.00 98 985.1
20260510050332 53 171 0.0 1.7 0.00 0.00 0.00 98 985.1
20260510045721 53 159 0.0 0.9 0.00 0.00 0.00 98 985.1
20260510045110 53 206 0.9 1.7 0.00 0.00 0.00 98 985.1
20260510043931 53 164 0.9 1.7 0.00 0.00 0.00 97 985.1
20260510043338 53 228 0.9 1.7 0.00 0.00 0.00 97 985.1
20260510042711 53 196 0.9 2.6 0.00 0.00 0.00 97 984.7
20260510042145 53 214 0.9 1.7 0.00 0.00 0.00 97 984.7
20260510041533 53 81 0.0 2.6 0.00 0.00 0.00 97 984.7
20260510040924 53 135 0.0 2.6 0.00 0.00 0.00 97 984.7
20260510040343 53 155 0.9 1.7 0.00 0.00 0.00 97 984.7
20260510035747 53 301 0.0 1.7 0.00 0.00 0.25 97 984.7
20260510035123 53 178 0.9 2.6 0.00 0.00 0.25 97 984.7
20260510034541 53 25 0.0 1.7 0.00 0.00 0.25 97 984.7
20260510033910 53 182 1.7 2.6 0.00 0.00 0.25 97 984.7
20260510033316 53 167 0.0 1.7 0.00 0.00 0.25 96 984.7
20260510032752 53 151 0.0 2.6 0.00 0.00 0.25 96 984.7
20260510032147 53 243 0.9 1.7 0.00 0.00 0.25 96 984.7
20260510031524 53 44 0.0 1.7 0.00 0.00 0.25 96 984.7
20260510030919 54 168 0.9 1.7 0.00 0.00 0.25 95 984.7
20260510030328 54 203 0.9 1.7 0.00 0.00 0.25 95 984.7
20260510025732 54 185 0.0 1.7 0.00 0.00 0.25 95 984.4
20260510025123 54 89 0.0 1.7 0.00 0.00 0.25 94 984.4
20260510023940 54 44 0.0 1.7 0.00 0.00 0.25 94 984.4
20260510022739 54 190 0.9 2.6 0.00 0.00 0.25 93 984.0
20260510021510 55 186 0.0 0.9 0.00 0.00 0.25 91 984.4
20260510020952 55 155 0.0 1.7 0.00 0.00 0.25 90 984.0
20260510015740 56 166 0.0 0.9 0.00 0.00 0.25 89 984.0
20260510015143 56 191 0.0 1.7 0.00 0.00 0.25 88 984.0
20260510014511 56 165 0.0 1.7 0.00 0.00 0.25 87 984.0
20260510013946 57 197 0.0 1.7 0.00 0.00 0.25 86 983.7
20260510012725 58 198 0.9 1.7 0.00 0.00 0.25 83 983.7
20260510012131 59 157 0.0 0.9 0.00 0.00 0.25 81 983.7
20260510011556 59 173 0.0 1.7 0.00 0.00 0.25 80 983.4
20260510010951 60 322 0.0 1.7 0.00 0.00 0.25 78 983.4
20260510010348 60 205 0.0 1.7 0.00 0.00 0.25 77 983.4
20260510005143 62 214 0.0 1.7 0.00 0.00 0.25 73 983.0
20260510004550 62 175 0.0 1.7 0.00 0.00 0.25 72 983.0
20260510003307 64 151 0.0 1.7 0.00 0.00 0.25 69 982.7
20260510002716 64 256 0.0 1.7 0.00 0.00 0.25 69 982.7
20260510001511 66 346 0.9 1.7 0.00 0.00 0.25 65 982.3
20260510000943 66 197 0.9 2.6 0.00 0.00 0.25 64 982.7
20260510000349 67 220 0.0 1.7 0.00 0.00 0.25 63 982.3
20260509235710 67 269 0.0 1.7 0.00 0.00 0.25 62 982.3
20260509235126 67 213 0.0 0.9 0.00 0.00 0.25 63 982.3
20260509234543 68 44 0.0 1.7 0.00 0.00 0.25 62 982.3
20260509233949 68 246 0.0 2.6 0.00 0.00 0.25 62 982.3
20260509233339 68 303 0.9 4.3 0.00 0.00 0.25 59 982.3
20260509232130 69 176 0.0 1.7 0.00 0.00 0.25 60 982.3
20260509231509 69 272 0.9 2.6 0.00 0.00 0.25 58 982.3
20260509230951 69 149 0.0 2.6 0.00 0.00 0.25 59 982.3
20260509230332 69 45 1.7 4.3 0.00 0.00 0.25 57 982.3
20260509225146 70 94 0.9 2.6 0.00 0.00 0.25 57 982.3
20260509224535 70 283 1.7 3.5 0.00 0.00 0.25 57
20260509223928 71 195 1.7 6.1 0.00 0.00 0.25 56
20260509223343 73 276 3.5 4.3 0.00 0.00 0.25 53 982.3
20260509222130 73 258 3.5 10.4 0.00 0.00 0.25 51 982.3
20260509220918 74 226 2.6 5.2 0.00 0.00 0.25 50 982.3
20260509220325 75 339 0.9 8.7 0.00 0.00 0.25 52 982.3
20260509215723 75 234 3.5 4.3 0.00 0.00 0.25 50 982.3
20260509215134 75 255 0.9 2.6 0.00 0.00 0.25 51 982.3
20260509214520 74 243 0.9 7.8 0.00 0.00 0.25 51 982.3
20260509213335 74 332 2.6 5.2 0.00 0.00 0.25 51 982.7
20260509212739 74 216 1.7 4.3 0.00 0.00 0.25 52 982.3
20260509212145 74 67 0.9 5.2 0.00 0.00 0.25 54 982.3
20260509211542 73 165 3.5 5.2 0.00 0.00 0.25 51 982.3
20260509210931 74 260 2.6 7.8 0.00 0.00 0.25 53 982.7
20260509210318 74 205 2.6 6.1 0.00 0.00 0.25 52 982.7
20260509205747 75 226 0.9 5.2 0.00 0.00 0.25 52 982.3
20260509205134 76 33 1.7 6.1 0.00 0.00 0.25 52 982.7
20260509204537 76 327 1.7 2.6 0.00 0.00 0.25 50 982.7
20260509203950 74 205 0.9 4.3 0.00 0.00 0.25 51 982.7
20260509203321 72 241 3.5 4.3 0.00 0.00 0.25 57 982.7
20260509202753 72 202 1.7 4.3 0.00 0.00 0.25 55 983.0
20260509202126 72 244 1.7 3.5 0.00 0.00 0.25 54 983.0
20260509201532 74 343 0.0 7.0 0.00 0.00 0.25 55 983.4
20260509200939 72 205 1.7 7.8 0.00 0.00 0.25 57 983.0
20260509200309 72 250 2.6 3.5 0.00 0.00 0.25 56 983.0
20260509195125 72 253 1.7 4.3 0.00 0.00 0.25 56 983.4
20260509193915 71 338 1.7 3.5 0.00 0.00 0.25 59 983.7
20260509193337 73 223 4.3 5.2 0.00 0.00 0.25 57 983.7
20260509192748 70 237 0.9 3.5 0.00 0.00 0.25 61 983.7
20260509191528 72 217 2.6 8.7 0.00 0.00 0.25 55 983.4
20260509190313 70 258 1.7 6.1 0.00 0.00 0.25 59 983.4
20260509185750 70 209 1.7 3.5 0.00 0.00 0.25 62 983.7
20260509185114 69 212 4.3 6.1 0.00 0.00 0.25 66 983.4
20260509184531 70 320 2.6 4.3 0.00 0.00 0.25 62 983.7
20260509183936 73 260 3.5 7.0 0.00 0.00 0.25 56 983.7
20260509183343 71 281 1.7 3.5 0.00 0.00 0.25 62 983.7
20260509182727 70 293 0.9 5.2 0.00 0.00 0.25 62 983.4
20260509182153 71 310 1.7 6.1 0.00 0.00 0.25 62 983.7
20260509181515 69 214 3.5 5.2 0.00 0.00 0.25 63 984.0
20260509180942 69 276 0.0 3.5 0.00 0.00 0.25 67 983.7
20260509180315 69 48 0.9 4.3 0.00 0.00 0.25 63 984.0
20260509175737 68 233 0.9 5.2 0.00 0.00 0.25 64 984.0
20260509175152 69 306 0.9 3.5 0.00 0.00 0.25 69 984.0
20260509174526 69 272 0.9 5.2 0.00 0.00 0.25 64 984.4
20260509173310 69 130 0.0 6.1 0.00 0.00 0.25 66 984.0
20260509172726 70 260 1.7 6.1 0.00 0.00 0.25 64 984.0
20260509171510 69 333 0.9 7.8 0.00 0.00 0.25 70 984.0
20260509170921 68 232 6.1 7.8 0.00 0.00 0.25 65 984.0
20260509170323 68 217 1.7 9.6 0.00 0.00 0.25 69 984.0
20260509165719 69 322 1.7 3.5 0.00 0.00 0.25 73 984.0
20260509165132 69 165 1.7 4.3 0.00 0.00 0.25 73 983.7